Weather History for KBXK - March, 2013

Change the Weather History Date:

Sunday, March 17, 2013

  Actual Average (KGYR) Record (KGYR)
Temperature  
Mean Temperature 70 °F -  
Max Temperature 86 °F 78 °F 98 °F (2015)
Min Temperature 53 °F 50 °F 39 °F (2002)
Cooling Degree Days 4    
Growing Degree Days 20 (Base 50)    
Moisture  
Dew Point 29 °F    
Average Humidity 28    
Maximum Humidity 58    
Minimum Humidity 8    
Precipitation  
Precipitation 0.00 in - - ()
Sea Level Pressure  
Sea Level Pressure 29.81 in    
Wind  
Wind Speed 6 mph (WNW)    
Max Wind Speed 14 mph    
Max Gust Speed 21 mph    
Visibility 10 miles    
Events      
Averages and records for this station are not official NWS values.
T = Trace of Precipitation, MM = Missing Value Source: NWS Daily Summary

Daily Weather History Graph

Daily Weather History Graph

Search for Another Location

Airport or City:

Trip Planner

Search our weather history database for the weather conditions in past years. The results will help you decide how hot, cold, wet, or windy it might be!

Date:

Astronomy

Mar. 17, 2013 Rise Set
Actual Time 6:38 AM MST 6:40 PM MST
Civil Twilight 6:13 AM MST 7:05 PM MST
Nautical Twilight 5:44 AM MST 7:34 PM MST
Astronomical Twilight 5:15 AM MST 8:03 PM MST
Moon 10:09 AM MST (3/17) No Moon Set
Length of Visible Light 12h 51m
Length of Day
12h 02m
Waxing Crescent, 32% of the Moon is Illuminated
Mar 17
Waxing Crescent
Mar 19
First Quarter
Mar 27
Full
Apr 2
Last Quarter
Apr 10
New

Hourly Weather History & Observations

Time (MST) Temp. Dew Point Humidity Pressure Visibility Wind Dir Wind Speed Gust Speed Precip Events Conditions
12:15 AM 62.6 °F 37.4 °F 39% 29.77 in 10.0 mi NNW 6.9 mph - N/A   Clear
12:35 AM 59.0 °F 37.4 °F 45% 29.77 in 10.0 mi North 5.8 mph - N/A   Clear
12:55 AM 59.0 °F 37.4 °F 45% 29.77 in 10.0 mi North 4.6 mph - N/A   Clear
1:15 AM 57.2 °F 37.4 °F 48% 29.78 in 10.0 mi NNW 4.6 mph - N/A   Clear
1:55 AM 57.2 °F 37.4 °F 48% 29.77 in 10.0 mi NE 4.6 mph - N/A   Clear
2:15 AM 59.0 °F 35.6 °F 42% 29.77 in 10.0 mi NE 4.6 mph - N/A   Clear
2:35 AM 57.2 °F 35.6 °F 44% 29.77 in 10.0 mi NNE 3.5 mph - N/A   Clear
2:55 AM 55.4 °F 35.6 °F 47% 29.77 in 10.0 mi Calm Calm - N/A   Clear
3:15 AM 55.4 °F 35.6 °F 47% 29.76 in 10.0 mi NNE 4.6 mph - N/A   Clear
3:35 AM 55.4 °F 35.6 °F 47% 29.76 in 10.0 mi North 6.9 mph - N/A   Clear
3:55 AM 55.4 °F 35.6 °F 47% 29.76 in 10.0 mi NNE 5.8 mph - N/A   Clear
4:15 AM 53.6 °F 35.6 °F 51% 29.76 in 10.0 mi North 4.6 mph - N/A   Clear
4:35 AM 55.4 °F 37.4 °F 51% 29.77 in 10.0 mi NNW 6.9 mph - N/A   Clear
4:55 AM 55.4 °F 37.4 °F 51% 29.77 in 10.0 mi NNW 5.8 mph - N/A   Clear
5:15 AM 55.4 °F 37.4 °F 51% 29.78 in 10.0 mi WNW 4.6 mph - N/A   Clear
5:35 AM 55.4 °F 37.4 °F 51% 29.78 in 10.0 mi Calm Calm - N/A   Clear
6:15 AM 55.4 °F 37.4 °F 51% 29.79 in 10.0 mi NNW 4.6 mph - N/A   Clear
6:35 AM 55.4 °F 37.4 °F 51% 29.79 in 10.0 mi Calm Calm - N/A   Clear
6:55 AM 53.6 °F 39.2 °F 58% 29.80 in 10.0 mi NE 6.9 mph - N/A   Clear
7:35 AM 57.2 °F 39.2 °F 51% 29.82 in 10.0 mi NE 4.6 mph - N/A   Clear
7:55 AM 60.8 °F 39.2 °F 45% 29.83 in 10.0 mi Calm Calm - N/A   Clear
8:15 AM 64.4 °F 37.4 °F 37% 29.85 in 10.0 mi WNW 3.5 mph - N/A   Clear
8:35 AM 66.2 °F 39.2 °F 37% 29.85 in 10.0 mi Calm Calm - N/A   Clear
8:55 AM 64.4 °F 41.0 °F 42% 29.86 in 10.0 mi Calm Calm - N/A   Clear
9:15 AM 66.2 °F 39.2 °F 37% 29.87 in 10.0 mi Calm Calm - N/A   Clear
9:35 AM 68.0 °F 41.0 °F 37% 29.87 in 10.0 mi Calm Calm - N/A   Clear
9:55 AM 68.0 °F 37.4 °F 33% 29.87 in 10.0 mi SSE 3.5 mph - N/A   Clear
10:15 AM 69.8 °F 35.6 °F 28% 29.88 in 10.0 mi Calm Calm - N/A   Clear
10:35 AM 71.6 °F 35.6 °F 27% 29.88 in 8.0 mi South 3.5 mph - N/A   Clear
10:55 AM 71.6 °F 37.4 °F 29% 29.87 in 10.0 mi South 4.6 mph - N/A   Clear
11:15 AM 73.4 °F 37.4 °F 27% 29.87 in 10.0 mi South 5.8 mph - N/A   Clear
11:35 AM 75.2 °F 32.0 °F 21% 29.87 in 10.0 mi West 3.5 mph - N/A   Clear
11:55 AM 77.0 °F 32.0 °F 19% 29.87 in 10.0 mi WSW 4.6 mph - N/A   Clear
12:15 PM 77.0 °F 30.2 °F 18% 29.85 in 10.0 mi SW 5.8 mph - N/A   Clear
12:35 PM 78.8 °F 30.2 °F 17% 29.84 in 10.0 mi SSW 6.9 mph - N/A   Clear
12:55 PM 80.6 °F 28.4 °F 15% 29.83 in 10.0 mi Calm Calm - N/A   Clear
1:15 PM 80.6 °F 28.4 °F 15% 29.82 in 10.0 mi West 4.6 mph - N/A   Clear
1:35 PM 82.4 °F 28.4 °F 14% 29.82 in 10.0 mi SW 8.1 mph 16.1 mph N/A   Clear
1:55 PM 84.2 °F 26.6 °F 12% 29.81 in 10.0 mi WSW 8.1 mph 17.3 mph N/A   Clear
2:15 PM 84.2 °F 26.6 °F 12% 29.80 in 10.0 mi SW 11.5 mph - N/A   Clear
2:35 PM 84.2 °F 24.8 °F 11% 29.79 in 10.0 mi WSW 11.5 mph 17.3 mph N/A   Clear
2:55 PM 86.0 °F 23.0 °F 10% 29.78 in 10.0 mi SW 11.5 mph - N/A   Clear
3:15 PM 86.0 °F 19.4 °F 9% 29.78 in 10.0 mi SW 10.4 mph 20.7 mph N/A   Clear
3:35 PM 86.0 °F 21.2 °F 9% 29.77 in 10.0 mi WSW 13.8 mph - N/A   Clear
3:55 PM 84.2 °F 21.2 °F 10% 29.77 in 10.0 mi SW 11.5 mph 18.4 mph N/A   Clear
4:15 PM 84.2 °F 23.0 °F 11% 29.78 in 10.0 mi WSW 11.5 mph - N/A   Clear
4:35 PM 84.2 °F 19.4 °F 9% 29.78 in 10.0 mi West 12.7 mph - N/A   Clear
4:55 PM 84.2 °F 17.6 °F 8% 29.78 in 10.0 mi West 13.8 mph - N/A   Clear
5:15 PM 84.2 °F 17.6 °F 8% 29.78 in 10.0 mi West 12.7 mph - N/A   Clear
5:35 PM 84.2 °F 15.8 °F 8% 29.78 in 10.0 mi West 13.8 mph 18.4 mph N/A   Clear
5:55 PM 82.4 °F 15.8 °F 8% 29.79 in 10.0 mi West 13.8 mph 18.4 mph N/A   Clear
6:15 PM 80.6 °F 17.6 °F 10% 29.79 in 10.0 mi West 11.5 mph - N/A   Clear
6:35 PM 77.0 °F 19.4 °F 12% 29.80 in 10.0 mi West 9.2 mph - N/A   Clear
6:55 PM 73.4 °F 21.2 °F 14% 29.80 in 10.0 mi West 11.5 mph - N/A   Clear
7:15 PM 71.6 °F 19.4 °F 14% 29.80 in 10.0 mi West 9.2 mph - N/A   Clear
7:35 PM 71.6 °F 17.6 °F 13% 29.80 in 10.0 mi West 9.2 mph - N/A   Clear
7:55 PM 69.8 °F 17.6 °F 14% 29.81 in 10.0 mi WNW 9.2 mph - N/A   Clear
8:15 PM 68.0 °F 17.6 °F 15% 29.82 in 10.0 mi WNW 9.2 mph - N/A   Clear
8:35 PM 68.0 °F 17.6 °F 15% 29.82 in 10.0 mi NW 10.4 mph - N/A   Clear
8:55 PM 68.0 °F 15.8 °F 13% 29.83 in 10.0 mi NW 10.4 mph - N/A   Clear
9:15 PM 66.2 °F 19.4 °F 17% 29.83 in 10.0 mi NW 10.4 mph - N/A   Clear
9:35 PM 66.2 °F 17.6 °F 15% 29.84 in 10.0 mi NW 9.2 mph - N/A   Clear
9:55 PM 64.4 °F 19.4 °F 18% 29.84 in 10.0 mi North 9.2 mph - N/A   Clear
10:15 PM 62.6 °F 19.4 °F 19% 29.84 in 10.0 mi NNW 10.4 mph - N/A   Clear
10:55 PM 60.8 °F 23.0 °F 23% 29.84 in 10.0 mi NNW 9.2 mph - N/A   Clear
11:15 PM 59.0 °F 23.0 °F 25% 29.84 in 10.0 mi NNW 8.1 mph - N/A   Clear
11:35 PM 59.0 °F 23.0 °F 25% 29.85 in 10.0 mi NW 4.6 mph - N/A   Clear
11:55 PM 57.2 °F 26.6 °F 31% 29.86 in 10.0 mi SSW 3.5 mph - N/A   Clear